Location: Olsztyn
(53.7767°N, 20.4765°E)
Time: 08:19:03
(UTC+01:00)

Transit 4A - Pass Details

Date: 09 October 2022
Orbit: 871 x 972 km, 66.8° (Epoch: 06 December)

Event Time Altitude Azimuth Distance (km) Brightness Sun altitude
Exits shadow 03:10:16 14° 326° (NNW) 2,308 10.0 -31.9°
Maximum altitude 03:14:28 29° 20° (NNE) 1,585 9.5 -31.5°
Drops below altitude 10° 03:19:29 10° 79° (E) 2,531 10.9 -30.9°
Sets 03:22:18 0° 91° (E) 3,463 11.6 -30.5°
